Sheridan, WY

12:43 PM MST on December 10, 2016 (GMT -0700)
Sheridan County

Weather History for KSHR - January, 2014

Change the Weather History Date:

Saturday, January 18, 2014

  Actual Average Record
Temperature  
Mean Temperature 36 °F 24 °F  
Max Temperature 46 °F 36 °F 60 °F (1920)
Min Temperature 25 °F 12 °F -30 °F (1963)
Degree Days  
Heating Degree Days 29 41  
Month to date heating degree days 691 747  
Since 1 July heating degree days 3911 3930  
Cooling Degree Days 0 0  
Month to date cooling degree days 0 0  
Year to date cooling degree days 0 0  
Moisture  
Dew Point 23 °F    
Average Humidity 59    
Maximum Humidity 78    
Minimum Humidity 40    
Precipitation  
Precipitation 0.00 in 0.02 in 0.70 in (1926)
Month to date precipitation 0.42 0.31  
Year to date precipitation 0.42 0.31  
Sea Level Pressure  
Sea Level Pressure 30.16 in    
Wind  
Wind Speed 7 mph (West)    
Max Wind Speed 23 mph    
Max Gust Speed 29 mph    
Visibility 10 miles    
Events      
T = Trace of Precipitation, MM = Missing Value Source: NWS Daily Summary

Daily Weather History Graph

Daily Weather History Graph

Search for Another Location

Airport or City:

Trip Planner

Search our weather history database for the weather conditions in past years. The results will help you decide how hot, cold, wet, or windy it might be!

Date:

Astronomy

Jan. 18, 2014 Rise Set
Actual Time 7:39 AM MST 4:57 PM MST
Civil Twilight 7:07 AM MST 5:29 PM MST
Nautical Twilight 6:31 AM MST 6:05 PM MST
Astronomical Twilight 5:56 AM MST 6:40 PM MST
Moon 7:50 PM MST (1/18) 8:33 AM MST (1/18)
Length of Visible Light 10h 22m
Length of Day
9h 17m
Waning Gibbous, 94% of the Moon is Illuminated
Jan 18
Waning Gibbous
Jan 23
Last Quarter
Jan 30
New
Feb 6
First Quarter
Feb 14
Full

Hourly Weather History & Observations

Time (MST) Temp. Windchill Dew Point Humidity Pressure Visibility Wind Dir Wind Speed Gust Speed Precip Events Conditions
12:53 AM 39.9 °F 30.2 °F 24.1 °F 53% 30.15 in 10.0 mi WNW 20.7 mph - N/A   Clear
1:53 AM 39.9 °F 30.2 °F 23.0 °F 51% 30.15 in 10.0 mi WNW 20.7 mph - N/A   Clear
2:53 AM 39.9 °F 31.1 °F 23.0 °F 51% 30.17 in 10.0 mi NW 17.3 mph - N/A   Clear
3:53 AM 34.0 °F 25.5 °F 24.1 °F 67% 30.22 in 10.0 mi NNW 11.5 mph - N/A   Clear
4:53 AM 30.0 °F 23.2 °F 21.9 °F 72% 30.26 in 10.0 mi NNW 6.9 mph - N/A   Clear
5:53 AM 30.9 °F 25.2 °F 21.0 °F 67% 30.26 in 10.0 mi WNW 5.8 mph - N/A   Clear
6:53 AM 28.9 °F 21.1 °F 21.0 °F 72% 30.27 in 10.0 mi WNW 8.1 mph - N/A   Clear
7:53 AM 30.9 °F 23.5 °F 21.0 °F 67% 30.29 in 10.0 mi West 8.1 mph - N/A   Clear
8:53 AM 33.1 °F 24.4 °F 23.0 °F 66% 30.28 in 10.0 mi WNW 11.5 mph - N/A   Clear
9:53 AM 39.9 °F 35.1 °F 23.0 °F 51% 30.27 in 10.0 mi WNW 6.9 mph - N/A   Clear
10:53 AM 42.1 °F 40.2 °F 23.0 °F 47% 30.25 in 10.0 mi SSE 3.5 mph - N/A   Clear
11:53 AM 43.0 °F - 21.9 °F 43% 30.21 in 10.0 mi Calm Calm - N/A   Clear
12:53 PM 44.1 °F 40.1 °F 21.9 °F 42% 30.17 in 10.0 mi SSE 6.9 mph - N/A   Clear
1:53 PM 46.0 °F 41.9 °F 24.1 °F 42% 30.10 in 10.0 mi SSE 8.1 mph - N/A   Clear
2:53 PM 44.1 °F 39.5 °F 26.1 °F 49% 30.09 in 10.0 mi SE 8.1 mph - N/A   Clear
3:53 PM 42.1 °F 38.4 °F 27.0 °F 55% 30.09 in 10.0 mi SSE 5.8 mph - N/A   Clear
4:53 PM 35.1 °F 30.1 °F 27.0 °F 72% 30.10 in 10.0 mi SSW 5.8 mph - N/A   Clear
5:53 PM 34.0 °F 28.8 °F 25.0 °F 70% 30.09 in 10.0 mi NW 5.8 mph - N/A   Clear
6:53 PM 28.0 °F - 23.0 °F 81% 30.09 in 10.0 mi Calm Calm - N/A   Clear
7:53 PM 28.0 °F - 21.9 °F 78% 30.08 in 10.0 mi Calm Calm - N/A   Clear
8:53 PM 28.9 °F - 21.0 °F 72% 30.07 in 10.0 mi Calm Calm - N/A   Clear
9:53 PM 28.0 °F 22.8 °F 21.0 °F 75% 30.05 in 10.0 mi South 4.6 mph - N/A   Clear
10:53 PM 28.0 °F - 19.9 °F 72% 30.03 in 10.0 mi Calm Calm - N/A   Clear
11:53 PM 30.0 °F - 21.9 °F 72% 30.00 in 10.0 mi Calm Calm - N/A   Clear